Content
SEND FEEDBACK

Daily
Averages
Monthly
Summary
Ecuador

LA TACUNGA, ECUADOR


Home > South America > Ecuador
Elevation: 9137 feet     Latitude: 00 55S     Longitude: 078 37W

WEATHER
 
SELECT A DAY
Number of Records: 106,988;   Date Range: 10/10/97 - 11/20/14
 
SHARE

PRINT THIS DATA

[ ← Previous Day ]
WEATHER ALMANAC - JANUARY 23, 2013
[ Next Day → ]
[ °C ]   °F
Weather ElementAverageHighLow
Temperature55.2 °F64.4 °F (12:00 pm)46.4 °F (7:00 am)
Dewpoint48.3 °F51.8 °F (1:00 am)44.6 °F (7:00 am)
Humidity78.1 %100 % (5:00 am)45 % (1:00 pm)
Barometer30.46 in30.54 in (9:00 am)30.39 in (3:00 am)
Wind Speed5.6 mph16.1 mph (4:00 pm)
Weather ElementAverage
Visibility6.6 mi
Wind DirectionESE (117 °)

Weather ElementTotal
Precipitation---
Heating Degree Days9.6 (Base 65)
Growing Degree Days5.4 (Base 50)
Averaged from 27 records on January 23, 2013
WEATHER CONDITIONS BREAKOUT
WIND DIRECTION BREAKOUT
WEATHER BY HOUR - JANUARY 23, 2013
[ °C ]   °F
Local TimeTemperatureDewpointHumidityBarometerVisibilityWind DirectionWind SpeedGust SpeedPrecipitationEventsConditions
1:00 AM53.6 °F51.8 °F94 %30.45 in6.2 miSouth (180°)5.8 mphScattered Clouds
2:00 AM51.8 °F50.0 °F94 %30.42 in6.2 miSouth (180°)6.9 mphScattered Clouds
3:00 AM51.8 °F50.0 °F94 %30.39 in6.2 miSouth (180°)5.8 mphMostly Cloudy
4:00 AM51.8 °F50.0 °F94 %30.42 in6.2 miCalmMostly Cloudy
5:00 AM48.2 °F48.2 °F100 %30.45 in6.2 miCalmMostly Cloudy
6:00 AM48.2 °F46.4 °F93 %30.45 in6.2 miNE (40°)4.6 mphPartly Cloudy
7:00 AM46.4 °F44.6 °F93 %30.48 in5.0 miNNE (30°)2.3 mphFogMostly Cloudy
7:00 AM47.0 °F45.0 °F90 %5.0 miNNE (30°)2.3 mphFogLight Fog
8:00 AM51.8 °F46.4 °F82 %30.51 in6.2 miNE (40°)3.5 mphMostly Cloudy
9:00 AM53.6 °F46.4 °F77 %30.54 in6.2 miNE (40°)2.3 mphScattered Clouds
10:00 AM57.2 °F48.2 °F72 %30.51 in6.2 miSouth (170°)2.3 mphMostly Cloudy
11:00 AM60.8 °F48.2 °F63 %30.48 in6.2 miEast (90°)5.8 mphMostly Cloudy
12:00 PM64.4 °F48.2 °F56 %30.45 in6.2 miCalmMostly Cloudy
1:00 PM64.4 °F48.2 °F56 %30.45 in6.2 miSouth (190°)10.4 mphScattered Clouds
1:00 PM64.0 °F48.0 °F45 %7.0 miSouth (190°)10.4 mphMostly Cloudy
2:00 PM62.6 °F48.2 °F59 %30.42 in6.2 miSouth (190°)9.2 mphScattered Clouds
3:00 PM62.6 °F48.2 °F59 %30.42 in6.2 miESE (120°)5.8 mphMostly Cloudy
4:00 PM60.0 °F51.0 °F63 %12.0 miSouth (180°)16.1 mphMostly Cloudy
4:00 PM60.8 °F50.0 °F68 %30.42 in6.2 miSouth (180°)16.1 mphMostly Cloudy
5:00 PM59.0 °F50.0 °F72 %30.42 in6.2 miSouth (170°)13.8 mphScattered Clouds
6:00 PM59.0 °F50.0 °F72 %30.42 in6.2 miSouth (190°)13.8 mphPartly Cloudy
7:00 PM57.0 °F49.0 °F68 %12.0 miSSW (200°)3.5 mphScattered Clouds
7:00 PM57.2 °F50.0 °F77 %30.42 in6.2 miSSW (200°)3.5 mphPartly Cloudy
8:00 PM51.8 °F48.2 °F88 %30.45 in6.2 miNNW (340°)3.5 mphPartly Cloudy
9:00 PM50.0 °F48.2 °F94 %30.48 in6.2 miNNE (30°)2.3 mphClear
10:00 PM48.2 °F46.4 °F93 %30.51 in6.2 miCalmClear
11:00 PM46.4 °F44.6 °F93 %30.51 in6.2 miCalmMostly Cloudy
Hourly data recorded from SELT, located miles away from La Tacunga, Ecuador







STORIES FROM OUR PARTNERS